W0WC Weather Reports


time (UTC)temp
C
wind
direction
speed
KPH
gust
KPH
rain 1hr
cm
rain 24hr
cm
rain mn
cm
humidity
%
barometer
mb
20260906223926 33 351 0.0 1.6 0.00 0.00 0.00 45 1012.9
20260906223422 33 237 4.8 4.8 0.00 0.00 0.00 45 1012.9
20260906222920 33 350 3.2 3.2 0.00 0.00 0.00 44 1013.0
20260906222420 34 3 4.8 6.4 0.00 0.00 0.00 44 1013.1
20260906221917 34 328 3.2 3.2 0.00 0.00 0.00 44 1013.1
20260906221417 35 339 1.6 3.2 0.00 0.00 0.00 43 1013.0
20260906220912 35 121 4.8 6.4 0.00 0.00 0.00 40 1013.2
20260906220408 35 343 1.6 1.6 0.00 0.00 0.00 41 1013.1
20260906215906 35 350 1.6 1.6 0.00 0.00 0.00 41 1013.1
20260906215401 35 9 1.6 3.2 0.00 0.00 0.00 41 1013.2
20260906214859 35 323 3.2 4.8 0.00 0.00 0.00 40 1013.3
20260906214353 36 311 4.8 6.4 0.00 0.00 0.00 40 1013.5
20260906213853 36 12 0.0 0.0 0.00 0.00 0.00 40 1013.4
20260906213347 36 53 1.6 3.2 0.00 0.00 0.00 40 1013.2
20260906212845 35 42 1.6 1.6 0.00 0.00 0.00 40 1013.0
20260906212341 35 62 1.6 3.2 0.00 0.00 0.00 40 1013.1
20260906211840 35 80 3.2 6.4 0.00 0.00 0.00 40 1013.0
20260906211336 36 135 6.4 9.7 0.00 0.00 0.00 39 1013.1
20260906210830 36 97 6.4 6.4 0.00 0.00 0.00 38 1013.1
20260906210325 35 178 3.2 3.2 0.00 0.00 0.00 39 1013.0
20260906205820 35 102 9.7 14.5 0.00 0.00 0.00 39 1013.0
20260906205317 36 122 16.1 17.7 0.00 0.00 0.00 38 1013.2
20260906204812 36 67 3.2 4.8 0.00 0.00 0.00 39 1013.4
20260906204311 36 86 0.0 1.6 0.00 0.00 0.00 40 1013.3
20260906203810 36 243 8.0 11.3 0.00 0.00 0.00 40 1013.7
20260906203306 36 267 3.2 3.2 0.00 0.00 0.00 37 1013.3
20260906202802 36 180 4.8 6.4 0.00 0.00 0.00 35 1013.5
20260906202301 36 61 4.8 4.8 0.00 0.00 0.00 36 1013.5
20260906201756 36 48 3.2 4.8 0.00 0.00 0.00 36 1013.6
20260906201250 36 188 3.2 4.8 0.00 0.00 0.00 36 1013.8
20260906200746 36 358 1.6 3.2 0.00 0.00 0.00 37 1013.9
20260906200242 36 78 6.4 9.7 0.00 0.00 0.00 37 1013.8
20260906195737 36 116 9.7 12.9 0.00 0.00 0.00 37 1013.9
20260906195233 36 84 9.7 14.5 0.00 0.00 0.00 38 1013.7
20260906194730 37 106 11.3 16.1 0.00 0.00 0.00 36 1013.7
20260906194225 36 130 6.4 9.7 0.00 0.00 0.00 36 1013.6
20260906193720 37 174 12.9 14.5 0.00 0.00 0.00 36 1013.6
20260906193220 38 186 9.7 12.9 0.00 0.00 0.00 33 1013.6
20260906192716 38 34 1.6 3.2 0.00 0.00 0.00 31 1013.8
20260906192210 39 334 1.6 1.6 0.00 0.00 0.00 31 1013.5
20260906191710 39 44 1.6 1.6 0.00 0.00 0.00 31 1013.5
20260906191204 40 65 1.6 1.6 0.00 0.00 0.00 30 1013.7
20260906190704 40 21 0.0 1.6 0.00 0.00 0.00 31 1013.6
20260906190159 39 16 1.6 3.2 0.00 0.00 0.00 31 1013.7
20260906185658 39 354 4.8 6.4 0.00 0.00 0.00 31 1013.8
20260906185157 39 61 3.2 4.8 0.00 0.00 0.00 32 1014.0
20260906184651 38 328 8.0 11.3 0.00 0.00 0.00 32 1013.7
20260906184147 38 12 4.8 6.4 0.00 0.00 0.00 32 1014.0
20260906183643 38 38 1.6 3.2 0.00 0.00 0.00 33 1014.0
20260906183139 38 354 0.0 1.6 0.00 0.00 0.00 34 1014.0
20260906182639 37 351 1.6 1.6 0.00 0.00 0.00 34 1014.0
20260906182135 37 10 6.4 6.4 0.00 0.00 0.00 35 1014.2
20260906181630 38 311 8.0 9.7 0.00 0.00 0.00 34 1014.2
20260906181126 38 43 3.2 3.2 0.00 0.00 0.00 33 1014.2
20260906180621 38 354 11.3 16.1 0.00 0.00 0.00 34 1014.4
20260906180120 39 18 4.8 6.4 0.00 0.00 0.00 32 1014.5
20260906175619 40 358 3.2 4.8 0.00 0.00 0.00 32 1014.6
20260906175114 40 42 3.2 3.2 0.00 0.00 0.00 33 1014.8
20260906174612 38 51 3.2 3.2 0.00 0.00 0.00 34 1015.0
20260906174107 38 3 4.8 6.4 0.00 0.00 0.00 35 1015.1
20260906173602 37 33 3.2 6.4 0.00 0.00 0.00 35 1015.2
20260906173052 38 33 6.4 9.7 0.00 0.00 0.00 35 1015.6
20260906172546 37 10 1.6 1.6 0.00 0.00 0.00 35 1015.5
20260906172042 37 23 3.2 3.2 0.00 0.00 0.00 35 1015.6
20260906171541 37 11 1.6 3.2 0.00 0.00 0.00 35 1015.8
20260906171037 38 346 4.8 4.8 0.00 0.00 0.00 35 1015.8
20260906170533 37 24 1.6 3.2 0.00 0.00 0.00 36 1015.8
20260906170032 37 140 4.8 4.8 0.00 0.00 0.00 37 1015.8
20260906165529 37 17 0.0 0.0 0.00 0.00 0.00 37 1016.0
20260906165024 37 28 1.6 3.2 0.00 0.00 0.00 38 1016.0
20260906164523 37 16 1.6 3.2 0.00 0.00 0.00 38 1016.0
20260906164020 37 38 0.0 1.6 0.00 0.00 0.00 38 1016.1
20260906163514 37 42 1.6 1.6 0.00 0.00 0.00 36 1015.9
20260906163010 37 73 3.2 4.8 0.00 0.00 0.00 36 1016.2
20260906162507 36 43 0.0 0.0 0.00 0.00 0.00 37 1016.1
20260906162002 36 26 3.2 3.2 0.00 0.00 0.00 38 1016.0
20260906161502 36 42 0.0 1.6 0.00 0.00 0.00 39 1016.4
20260906160955 36 16 0.0 0.0 0.00 0.00 0.00 39 1016.2
20260906160454 36 14 4.8 6.4 0.00 0.00 0.00 38 1016.2
20260906155952 36 83 4.8 6.4 0.00 0.00 0.00 39 1016.4
20260906155451 35 44 0.0 0.0 0.00 0.00 0.00 41 1016.1
20260906154947 35 4 3.2 3.2 0.00 0.00 0.00 41 1016.2
20260906154442 36 21 0.0 1.6 0.00 0.00 0.00 41 1016.1
20260906153940 36 40 0.0 0.0 0.00 0.00 0.00 42 1016.2
20260906153439 35 39 0.0 1.6 0.00 0.00 0.00 43 1016.3
20260906152936 35 29 1.6 3.2 0.00 0.00 0.00 44 1016.2
20260906152435 35 6 1.6 3.2 0.00 0.00 0.00 43 1016.0
20260906151934 35 3 3.2 3.2 0.00 0.00 0.00 42 1016.2
20260906151430 34 13 0.0 0.0 0.00 0.00 0.00 45 1016.0
20260906150925 33 5 1.6 1.6 0.00 0.00 0.00 46 1016.2
20260906150420 33 249 3.2 3.2 0.00 0.00 0.00 47 1016.2
20260906145915 33 246 4.8 4.8 0.00 0.00 0.00 47 1016.2
20260906145414 33 268 3.2 4.8 0.00 0.00 0.00 47 1016.1
20260906144909 32 342 1.6 1.6 0.00 0.00 0.00 49 1016.2
20260906144409 32 17 3.2 3.2 0.00 0.00 0.00 48 1016.2
20260906143905 32 303 3.2 3.2 0.00 0.00 0.00 49 1016.2
20260906143400 32 11 1.6 1.6 0.00 0.00 0.00 50 1016.1
20260906142856 32 330 3.2 3.2 0.00 0.00 0.00 50 1016.1
20260906142355 32 219 4.8 4.8 0.00 0.00 0.00 50 1015.8
20260906141850 31 335 1.6 1.6 0.00 0.00 0.00 51 1016.0
20260906141344 31 15 0.0 0.0 0.00 0.00 0.00 53 1015.9
20260906140844 30 61 1.6 3.2 0.00 0.00 0.00 54 1016.1
20260906140339 30 239 1.6 3.2 0.00 0.00 0.00 54 1016.1
20260906135837 30 2 0.0 0.0 0.00 0.00 0.00 55 1015.9
20260906135337 30 302 3.2 3.2 0.00 0.00 0.00 55 1015.9
20260906134832 30 201 3.2 4.8 0.00 0.00 0.00 56 1015.7
20260906134327 30 307 3.2 4.8 0.00 0.00 0.00 56 1015.9
20260906133823 28 8 0.0 1.6 0.00 0.00 0.00 59 1015.8
20260906133319 28 329 3.2 3.2 0.00 0.00 0.00 60 1015.8
20260906132814 28 254 3.2 4.8 0.00 0.00 0.00 60 1015.6
20260906132309 27 332 3.2 3.2 0.00 0.00 0.00 61 1015.9
20260906131804 27 26 1.6 1.6 0.00 0.00 0.00 62 1015.5
20260906131259 27 35 3.2 3.2 0.00 0.00 0.00 63 1015.8
20260906130755 27 270 3.2 3.2 0.00 0.00 0.00 64 1015.6
20260906130250 27 189 4.8 4.8 0.00 0.00 0.00 64 1015.4
20260906125748 26 210 3.2 3.2 0.00 0.00 0.00 65 1015.2
20260906125246 26 161 6.4 6.4 0.00 0.00 0.00 65 1015.3
20260906124741 26 329 1.6 3.2 0.00 0.00 0.00 65 1015.2
20260906124237 26 12 1.6 1.6 0.00 0.00 0.00 66 1015.3
20260906123735 26 111 1.6 3.2 0.00 0.00 0.00 66 1015.0
20260906123231 26 78 1.6 3.2 0.00 0.00 0.00 66 1015.1
20260906122730 26 38 1.6 3.2 0.00 0.00 0.00 67 1015.0
20260906122226 26 40 0.0 0.0 0.00 0.00 0.00 67 1015.1
20260906121722 26 37 0.0 1.6 0.00 0.00 0.00 68 1015.0
20260906121218 25 159 1.6 3.2 0.00 0.00 0.00 68 1015.0
20260906120714 25 158 3.2 3.2 0.00 0.00 0.00 68 1015.1
20260906120211 25 180 1.6 4.8 0.00 0.00 0.00 68 1014.8
20260906115706 25 60 3.2 3.2 0.00 0.00 0.00 69 1015.0
20260906115201 25 25 0.0 0.0 0.00 0.00 0.00 69 1014.8
20260906114700 25 26 0.0 0.0 0.00 0.00 0.00 69 1014.8
20260906114155 25 39 0.0 1.6 0.00 0.00 0.00 69 1015.0
20260906113655 25 19 0.0 0.0 0.00 0.00 0.00 68 1014.8
20260906113155 26 26 0.0 0.0 0.00 0.00 0.00 68 1015.0
20260906112654 26 30 0.0 1.6 0.00 0.00 0.00 67 1014.8
20260906112152 26 1 0.0 0.0 0.00 0.00 0.00 67 1014.8
20260906111651 26 31 1.6 1.6 0.00 0.00 0.00 66 1014.6
20260906111145 26 30 1.6 1.6 0.00 0.00 0.00 66 1014.8
20260906110641 26 45 1.6 1.6 0.00 0.00 0.00 66 1014.7
20260906110135 26 24 1.6 1.6 0.00 0.00 0.00 66 1014.7
20260906105629 26 44 3.2 3.2 0.00 0.00 0.00 65 1014.8
20260906105126 26 32 0.0 0.0 0.00 0.00 0.00 65 1014.7
20260906104625 26 23 1.6 1.6 0.00 0.00 0.00 66 1014.8
20260906104119 26 65 1.6 3.2 0.00 0.00 0.00 66 1014.7
20260906103618 26 23 1.6 1.6 0.00 0.00 0.00 66 1014.6
20260906103113 26 169 3.2 3.2 0.00 0.00 0.00 66 1014.6
20260906102608 26 354 1.6 1.6 0.00 0.00 0.00 68 1014.5
20260906102102 25 21 0.0 1.6 0.00 0.00 0.00 69 1014.2
20260906101556 25 39 1.6 1.6 0.00 0.00 0.00 71 1014.4
20260906101051 25 20 0.0 0.0 0.00 0.00 0.00 71 1014.5
20260906100547 25 9 0.0 0.0 0.00 0.00 0.00 70 1014.2
20260906100047 25 358 0.0 0.0 0.00 0.00 0.00 71 1014.5
20260906095542 25 14 0.0 0.0 0.00 0.00 0.00 71 1014.2
20260906095037 25 11 0.0 0.0 0.00 0.00 0.00 71 1014.5
20260906094536 25 10 0.0 0.0 0.00 0.00 0.00 70 1014.1
20260906094032 25 5 0.0 0.0 0.00 0.00 0.00 70 1014.2
20260906093528 26 12 0.0 0.0 0.00 0.00 0.00 69 1014.2
20260906093023 26 13 0.0 0.0 0.00 0.00 0.00 69 1014.1
20260906092522 26 17 0.0 0.0 0.00 0.00 0.00 69 1014.1
20260906092018 26 20 0.0 0.0 0.00 0.00 0.00 68 1014.0
20260906091514 26 20 0.0 0.0 0.00 0.00 0.00 68 1014.1
20260906091010 25 20 0.0 0.0 0.00 0.00 0.00 69 1013.9
20260906090505 26 21 0.0 0.0 0.00 0.00 0.00 69 1013.8
20260906090004 26 14 0.0 0.0 0.00 0.00 0.00 69 1014.1
20260906085504 26 13 0.0 0.0 0.00 0.00 0.00 68 1014.0
20260906085003 26 17 0.0 0.0 0.00 0.00 0.00 68 1014.0
20260906084458 26 15 0.0 0.0 0.00 0.00 0.00 69 1014.1
20260906083957 26 15 0.0 0.0 0.00 0.00 0.00 68 1014.1
20260906083453 26 18 0.0 0.0 0.00 0.00 0.00 68 1013.9
20260906082952 26 8 0.0 0.0 0.00 0.00 0.00 68 1014.0
20260906082447 26 16 0.0 0.0 0.00 0.00 0.00 67 1013.9
20260906081943 26 16 0.0 0.0 0.00 0.00 0.00 67 1013.7
20260906081443 26 14 0.0 0.0 0.00 0.00 0.00 66 1013.8
20260906080940 27 2 1.6 1.6 0.00 0.00 0.00 65 1013.8
20260906080436 27 13 0.0 0.0 0.00 0.00 0.00 63 1013.8
20260906075931 27 16 0.0 0.0 0.00 0.00 0.00 63 1013.8
20260906075426 27 16 0.0 0.0 0.00 0.00 0.00 62 1013.9
20260906074921 27 16 0.0 0.0 0.00 0.00 0.00 62 1013.6
20260906074421 27 23 0.0 0.0 0.00 0.00 0.00 62 1013.6
20260906073920 27 20 0.0 0.0 0.00 0.00 0.00 62 1013.6
20260906073414 27 21 0.0 0.0 0.00 0.00 0.00 62 1013.8
20260906072911 27 22 0.0 0.0 0.00 0.00 0.00 62 1013.9
20260906072406 27 19 0.0 0.0 0.00 0.00 0.00 62 1013.7
20260906071902 27 19 0.0 0.0 0.00 0.00 0.00 61 1013.9
20260906071357 27 25 0.0 0.0 0.00 0.00 0.00 61 1013.9
20260906070853 27 20 0.0 0.0 0.00 0.00 0.00 61 1014.0
20260906070349 27 19 0.0 0.0 0.00 0.00 0.00 61 1013.9
20260906065844 28 12 0.0 0.0 0.00 0.00 0.00 60 1014.0
20260906065338 28 13 0.0 0.0 0.00 0.00 0.00 59 1014.0
20260906064834 28 21 0.0 0.0 0.00 0.00 0.00 58 1014.1
20260906064330 28 19 0.0 0.0 0.00 0.00 0.00 58 1014.0
20260906063824 28 19 0.0 0.0 0.00 0.00 0.00 56 1014.0
20260906063320 29 14 0.0 0.0 0.00 0.00 0.00 55 1014.0
20260906062815 29 22 0.0 0.0 0.00 0.00 0.00 55 1014.2
20260906062314 29 22 0.0 0.0 0.00 0.00 0.00 55 1014.0
20260906061810 29 7 1.6 1.6 0.00 0.00 0.00 54 1014.1
20260906061306 29 54 3.2 3.2 0.00 0.00 0.00 54 1013.9
20260906060801 29 32 1.6 1.6 0.00 0.00 0.00 54 1014.1
20260906060258 29 337 1.6 1.6 0.00 0.00 0.00 55 1014.2
20260906055754 29 9 0.0 0.0 0.00 0.00 0.00 54 1014.1
20260906055249 28 326 1.6 1.6 0.00 0.00 0.00 56 1014.1
20260906054744 29 16 0.0 0.0 0.00 0.00 0.00 57 1014.0
20260906054239 29 16 0.0 0.0 0.00 0.00 0.00 56 1013.9
20260906053736 29 9 0.0 0.0 0.00 0.00 0.00 57 1014.0
20260906053232 29 17 0.0 0.0 0.00 0.00 0.00 56 1014.1
20260906052726 30 17 0.0 0.0 0.00 0.00 0.00 56 1014.1
20260906052223 30 12 0.0 0.0 0.00 0.00 0.00 57 1014.1
20260906051720 30 14 0.0 0.0 0.00 0.00 0.00 56 1014.0
20260906051219 30 4 0.0 1.6 0.00 0.00 0.00 56 1014.2
20260906050714 29 80 1.6 1.6 0.00 0.00 0.00 58 1014.4
20260906050209 28 21 0.0 0.0 0.00 0.00 0.00 61 1014.2
20260906045708 28 47 1.6 1.6 0.00 0.00 0.00 61 1014.2
20260906045203 29 10 0.0 0.0 0.00 0.00 0.00 61 1013.9
20260906044659 29 10 0.0 0.0 0.00 0.00 0.00 60 1014.0
20260906044154 29 10 0.0 0.0 0.00 0.00 0.00 60 1014.0
20260906043650 29 11 0.0 0.0 0.00 0.00 0.00 59 1014.0
20260906043145 29 9 0.0 0.0 0.00 0.00 0.00 59 1014.0
20260906042640 30 11 0.0 0.0 0.00 0.00 0.00 58 1014.1
20260906042139 30 11 0.0 0.0 0.00 0.00 0.00 58 1014.0
20260906041629 30 12 0.0 0.0 0.00 0.00 0.00 58 1014.0
20260906041124 30 12 0.0 0.0 0.00 0.00 0.00 58 1014.1
20260906040619 30 16 0.0 0.0 0.00 0.00 0.00 58 1014.2
20260906040114 29 16 0.0 0.0 0.00 0.00 0.00 58 1014.2
20260906035609 29 16 0.0 0.0 0.00 0.00 0.00 58 1014.2
20260906035105 29 16 0.0 0.0 0.00 0.00 0.00 57 1014.0
20260906034559 30 12 0.0 0.0 0.00 0.00 0.00 57 1014.1
20260906034055 30 11 0.0 0.0 0.00 0.00 0.00 57 1014.0
20260906033550 30 17 0.0 0.0 0.00 0.00 0.00 56 1013.9
20260906033045 30 18 0.0 0.0 0.00 0.00 0.00 55 1013.9
20260906032542 30 11 0.0 0.0 0.00 0.00 0.00 55 1013.9
20260906032042 30 14 0.0 0.0 0.00 0.00 0.00 54 1013.8
20260906031537 30 15 0.0 0.0 0.00 0.00 0.00 54 1013.7
20260906031033 31 8 0.0 0.0 0.00 0.00 0.00 54 1013.8
20260906030532 31 13 0.0 0.0 0.00 0.00 0.00 53 1013.8
20260906030032 31 11 0.0 0.0 0.00 0.00 0.00 53 1013.7
20260906025532 31 15 0.0 0.0 0.00 0.00 0.00 53 1013.5
20260906025030 31 9 0.0 0.0 0.00 0.00 0.00 53 1013.5
20260906024526 31 11 0.0 0.0 0.00 0.00 0.00 52 1013.5
20260906024025 31 12 0.0 0.0 0.00 0.00 0.00 51 1013.4
20260906023522 31 21 0.0 0.0 0.00 0.00 0.00 52 1013.5
20260906023016 31 12 0.0 0.0 0.00 0.00 0.00 51 1013.4
20260906022512 31 15 0.0 0.0 0.00 0.00 0.00 51 1013.5
20260906022007 31 14 0.0 0.0 0.00 0.00 0.00 50 1013.3
20260906021502 31 13 0.0 0.0 0.00 0.00 0.00 50 1013.1
20260906020956 31 13 0.0 0.0 0.00 0.00 0.00 50 1013.3
20260906020450 32 11 0.0 0.0 0.00 0.00 0.00 49 1013.0
20260906015950 32 9 0.0 0.0 0.00 0.00 0.00 49 1013.0
20260906015449 32 7 0.0 0.0 0.00 0.00 0.00 49 1013.0
20260906014949 32 6 0.0 0.0 0.00 0.00 0.00 49 1013.0
20260906014449 32 7 0.0 0.0 0.00 0.00 0.00 48 1012.8
20260906013945 32 8 0.0 0.0 0.00 0.00 0.00 47 1012.8
20260906013440 32 9 0.0 0.0 0.00 0.00 0.00 47 1012.9
20260906012936 33 13 0.0 0.0 0.00 0.00 0.00 46 1012.8
20260906012431 33 6 0.0 1.6 0.00 0.00 0.00 45 1012.8
20260906011930 33 358 0.0 1.6 0.00 0.00 0.00 46 1012.6
20260906011426 33 8 0.0 0.0 0.00 0.00 0.00 45 1012.7
20260906010921 33 8 0.0 0.0 0.00 0.00 0.00 45 1012.5
20260906010416 33 14 0.0 0.0 0.00 0.00 0.00 44 1012.6
20260906005912 33 17 0.0 0.0 0.00 0.00 0.00 44 1012.6
20260906005412 34 10 0.0 0.0 0.00 0.00 0.00 43 1012.7
20260906004910 35 6 0.0 1.6 0.00 0.00 0.00 41 1012.5
20260906004405 35 12 0.0 0.0 0.00 0.00 0.00 40 1012.5
20260906003900 35 15 1.6 1.6 0.00 0.00 0.00 39 1012.5
20260906003355 36 11 0.0 1.6 0.00 0.00 0.00 39 1012.5
20260906002851 36 28 0.0 0.0 0.00 0.00 0.00 37 1012.4
20260906002350 36 21 0.0 0.0 0.00 0.00 0.00 37 1012.6
20260906001846 36 20 3.2 3.2 0.00 0.00 0.00 36 1012.5
20260906001341 37 13 1.6 1.6 0.00 0.00 0.00 36 1012.6
20260906000837 37 22 0.0 0.0 0.00 0.00 0.00 36 1012.6
20260906000336 37 18 3.2 3.2 0.00 0.00 0.00 35 1012.4
20260905235836 37 1 4.8 6.4 0.00 0.00 0.00 35 1012.3
20260905235331 37 359 3.2 4.8 0.00 0.00 0.00 34 1012.7
20260905234826 37 28 1.6 1.6 0.00 0.00 0.00 34 1012.7
20260905234321 37 18 0.0 1.6 0.00 0.00 0.00 34 1012.7
20260905233816 37 35 0.0 1.6 0.00 0.00 0.00 34 1012.6
20260905233311 38 59 6.4 6.4 0.00 0.00 0.00 33 1012.5
20260905232810 38 22 4.8 6.4 0.00 0.00 0.00 33 1012.4
20260905232307 38 17 0.0 0.0 0.00 0.00 0.00 33 1012.4
20260905231802 38 44 1.6 1.6 0.00 0.00 0.00 32 1012.5
20260905231257 38 103 4.8 9.7 0.00 0.00 0.00 32 1012.4
20260905230754 38 99 3.2 4.8 0.00 0.00 0.00 32 1012.4
20260905230251 38 10 1.6 1.6 0.00 0.00 0.00 33 1012.4
20260905225751 37 13 3.2 4.8 0.00 0.00 0.00 34 1012.4
20260905225246 37 9 6.4 9.7 0.00 0.00 0.00 34 1012.3
20260905224745 38 8 6.4 9.7 0.00 0.00 0.00 34 1012.5
20260905224241 38 69 1.6 1.6 0.00 0.00 0.00 34 1012.3